Date String (YYYY-MM-DD hh:mm:ss) UTC,Instrument flags,Ambient pressure (hPa),Sample flow (lpm),Bypass flow (lpm),Sample temperature (°C),Ambient temperature (°C),ASC tube jacket temperature (°C),LED temperature (°C),Box temperature (°C),Sample RH (%),Span deviation,Mass concentration (μg/m³),Mass concentration (μg/m³),Mass concentration (μg/m³)
DateTimeUTC,F1_M11,P_M11,Q1_M11,Q2_M11,T1_M11,T2_M11,T3_M11,T4_M11,T5_M11,U1_M11,ZSPAN_M11,X0_M11,X2_M11,X1_M11
2022-10-28 19:00:00,,0832.1,4.99,0.00,26.7,25.5,00.0,35.3,28.6,12.2,0000.0,0005.81,0003.21,0002.87
2022-10-28 19:01:00,,0832.2,5.00,0.00,26.7,25.5,00.0,35.4,28.6,11.8,0000.0,0006.13,0003.22,0002.85
2022-10-28 19:02:00,,0832.1,5.00,0.00,26.7,25.5,00.0,35.4,28.6,11.8,0000.0,0006.03,0003.23,0002.85
2022-10-28 19:03:00,,0832.1,5.00,0.00,26.7,25.5,00.0,35.4,28.6,11.9,0000.0,0006.03,0003.23,0002.86
2022-10-28 19:04:00,,0832.1,5.00,0.00,26.7,25.5,00.0,35.4,28.6,11.4,0000.0,0006.01,0003.21,0002.83
2022-10-28 19:05:00,,0832.1,5.00,0.00,26.7,25.6,00.0,35.4,28.6,11.6,0000.0,0005.82,0003.21,0002.83
2022-10-28 19:06:00,,0832.1,5.01,0.00,26.7,25.6,00.0,35.4,28.7,11.4,0000.0,0005.55,0003.18,0002.83
2022-10-28 19:07:00,,0832.1,5.00,0.00,26.8,25.6,00.0,35.5,28.7,11.6,0000.0,0006.02,0003.17,0002.83
2022-10-28 19:08:00,,0832.1,5.00,0.00,26.8,25.6,00.0,35.5,28.7,11.6,0000.0,0006.02,0003.17,0002.83
2022-10-28 19:09:00,,0832.1,5.00,0.00,26.8,25.6,00.0,35.5,28.7,11.6,0000.0,0005.68,0003.18,0002.85
2022-10-28 19:10:00,,0832.1,5.00,0.00,26.8,25.6,00.0,35.5,28.7,11.5,0000.0,0004.94,0003.16,0002.86
2022-10-28 19:11:00,,0832.1,5.00,0.00,26.8,25.7,00.0,35.5,28.7,11.4,0000.0,0004.82,0003.15,0002.88
2022-10-28 19:12:00,,0832.0,5.00,0.00,26.8,25.7,00.0,35.5,28.7,11.3,0000.0,0004.52,0003.15,0002.90
2022-10-28 19:13:00,,0831.9,5.01,0.00,26.8,25.7,00.0,35.5,28.7,11.5,0000.0,0004.52,0003.15,0002.91
2022-10-28 19:14:00,,0831.9,5.00,0.00,26.9,25.7,00.0,35.5,28.7,11.6,0000.0,0004.46,0003.15,0002.92
2022-10-28 19:15:00,,0831.9,4.98,0.00,26.9,25.7,00.0,35.6,28.7,12.1,0000.0,0004.90,0003.21,0002.99
2022-10-28 19:16:00,,0831.9,5.01,0.00,26.9,25.7,00.0,35.6,28.8,12.2,0000.0,0005.72,0003.29,0003.10
2022-10-28 19:17:00,,0832.0,5.01,0.00,26.9,25.7,00.0,35.6,28.8,12.2,0000.0,0005.93,0003.40,0003.18
2022-10-28 19:18:00,,0832.0,5.01,0.00,26.9,25.7,00.0,35.6,28.8,12.3,0000.0,0007.00,0003.49,0003.25
2022-10-28 19:19:00,,0832.0,4.97,0.00,26.9,25.7,00.0,35.6,28.8,11.5,0000.0,0007.37,0003.53,0003.30
2022-10-28 19:20:00,,0831.9,5.00,0.00,26.9,25.8,00.0,35.6,28.9,11.4,0000.0,0007.39,0003.56,0003.34
2022-10-28 19:21:00,,0831.8,5.01,0.00,27.0,25.8,00.0,35.7,28.9,11.5,0000.0,0007.47,0003.62,0003.39
2022-10-28 19:22:00,,0831.8,5.02,0.00,27.0,25.8,00.0,35.7,28.9,11.5,0000.0,0007.54,0003.67,0003.42
2022-10-28 19:23:00,,0831.7,4.99,0.00,27.0,25.8,00.0,35.7,28.9,11.6,0000.0,0007.62,0003.74,0003.46
2022-10-28 19:24:00,,0831.7,4.99,0.00,27.0,25.8,00.0,35.7,28.9,11.9,0000.0,0007.71,0003.79,0003.52
2022-10-28 19:25:00,,0831.7,5.01,0.00,27.0,25.8,00.0,35.7,28.9,11.9,0000.0,0007.77,0003.86,0003.59
2022-10-28 19:26:00,,0831.8,5.01,0.00,27.0,25.8,00.0,35.7,28.9,11.9,0000.0,0007.64,0003.94,0003.64
2022-10-28 19:27:00,,0831.7,5.00,0.00,27.0,25.9,00.0,35.7,28.9,11.9,0000.0,0007.44,0003.98,0003.69
2022-10-28 19:28:00,,0831.7,5.00,0.00,27.0,25.9,00.0,35.7,29.0,12.0,0000.0,0007.73,0004.03,0003.75
2022-10-28 19:29:00,,0831.8,4.97,0.00,27.1,25.9,00.0,35.8,29.0,11.9,0000.0,0006.83,0004.10,0003.82
2022-10-28 19:30:00,,0831.7,5.01,0.00,27.1,25.9,00.0,35.8,29.0,12.0,0000.0,0006.83,0004.20,0003.90
2022-10-28 19:31:00,,0831.8,5.00,0.00,27.1,25.9,00.0,35.8,29.0,12.0,0000.0,0007.87,0004.29,0003.99
2022-10-28 19:32:00,,0831.8,5.00,0.00,27.1,26.0,00.0,35.8,29.0,12.3,0000.0,0008.18,0004.40,0004.07
2022-10-28 19:33:00,,0831.7,5.00,0.00,27.1,26.0,00.0,35.8,29.0,12.3,0000.0,0008.38,0004.49,0004.17
2022-10-28 19:34:00,,0831.7,5.01,0.00,27.1,26.0,00.0,35.8,29.1,12.0,0000.0,0008.46,0004.57,0004.25
2022-10-28 19:35:00,,0831.7,5.00,0.00,27.2,26.0,00.0,35.8,29.1,11.8,0000.0,0008.54,0004.64,0004.32
2022-10-28 19:36:00,,0831.7,5.00,0.00,27.2,26.0,00.0,35.9,29.1,11.9,0000.0,0008.64,0004.70,0004.38
2022-10-28 19:37:00,,0831.7,5.00,0.00,27.2,26.0,00.0,35.9,29.1,12.0,0000.0,0008.72,0004.73,0004.42
2022-10-28 19:38:00,,0831.7,5.00,0.00,27.2,26.0,00.0,35.9,29.1,11.2,0000.0,0008.63,0004.70,0004.39
2022-10-28 19:39:00,,0831.7,5.00,0.00,27.2,26.0,00.0,35.9,29.1,11.0,0000.0,0008.35,0004.65,0004.34
2022-10-28 19:40:00,,0831.7,5.00,0.00,27.2,26.0,00.0,35.9,29.1,11.2,0000.0,0008.30,0004.60,0004.30
2022-10-28 19:41:00,,0831.7,5.01,0.00,27.2,26.0,00.0,35.9,29.1,11.3,0000.0,0008.21,0004.56,0004.26
2022-10-28 19:42:00,,0831.6,5.00,0.00,27.2,26.0,00.0,35.9,29.2,10.9,0000.0,0007.47,0004.51,0004.20
2022-10-28 19:43:00,,0831.7,5.00,0.00,27.2,26.0,00.0,36.0,29.2,10.4,0000.0,0007.25,0004.42,0004.12
2022-10-28 19:44:00,,0831.7,5.00,0.00,27.2,26.0,00.0,36.0,29.2,10.5,0000.0,0006.99,0004.32,0004.03
2022-10-28 19:45:00,,0831.6,5.00,0.00,27.3,26.1,00.0,36.0,29.2,10.2,0000.0,0006.92,0004.23,0003.95
2022-10-28 19:46:00,,0831.5,5.00,0.00,27.3,26.1,00.0,36.0,29.2,10.4,0000.0,0006.90,0004.16,0003.87
2022-10-28 19:47:00,,0831.5,5.00,0.00,27.3,26.1,00.0,36.0,29.2,11.4,0000.0,0007.10,0004.16,0003.84
2022-10-28 19:48:00,,0831.6,4.99,0.00,27.3,26.1,00.0,36.0,29.2,11.0,0000.0,0007.00,0004.15,0003.83
2022-10-28 19:49:00,,0831.5,5.00,0.00,27.3,26.1,00.0,36.0,29.2,10.9,0000.0,0007.05,0004.18,0003.87
2022-10-28 19:50:00,,0831.5,5.00,0.00,27.3,26.1,00.0,36.0,29.3,10.9,0000.0,0007.17,0004.23,0003.91
2022-10-28 19:51:00,,0831.5,4.99,0.00,27.3,26.2,00.0,36.0,29.3,11.3,0000.0,0007.91,0004.27,0003.96
2022-10-28 19:52:00,,0831.5,5.00,0.00,27.4,26.2,00.0,36.1,29.3,11.1,0000.0,0008.13,0004.38,0004.03
2022-10-28 19:53:00,,0831.5,5.00,0.00,27.4,26.2,00.0,36.1,29.3,11.0,0000.0,0008.46,0004.51,0004.13
2022-10-28 19:54:00,,0831.5,5.00,0.00,27.4,26.2,00.0,36.1,29.3,10.7,0000.0,0009.44,0004.61,0004.21
2022-10-28 19:55:00,,0831.5,5.02,0.00,27.4,26.2,00.0,36.1,29.3,11.2,0000.0,0009.98,0004.76,0004.34
2022-10-28 19:56:00,,0831.5,5.00,0.00,27.4,26.2,00.0,36.1,29.3,11.2,0000.0,0010.16,0004.95,0004.51
2022-10-28 19:57:00,,0831.4,4.99,0.00,27.4,26.2,00.0,36.1,29.3,11.2,0000.0,0010.31,0005.15,0004.68
2022-10-28 19:58:00,,0831.4,4.99,0.00,27.4,26.2,00.0,36.1,29.3,11.1,0000.0,0010.44,0005.32,0004.82
2022-10-28 19:59:00,,0831.4,5.02,0.00,27.4,26.3,00.0,36.1,29.3,11.1,0000.0,0010.61,0005.45,0004.92
